Weather History for Gilze-Rijen, Netherlands

Change the Weather History Date:

Wednesday, November 6, 2013

  Actual Average Record
Temperature  
Mean Temperature 50 °F -  
Max Temperature 57 °F 46 °F 59 °F (1996)
Min Temperature 44 °F 36 °F - (2003)
Degree Days  
Heating Degree Days 14    
Moisture  
Dew Point 48 °F    
Average Humidity 90    
Maximum Humidity 100    
Minimum Humidity 76    
Precipitation  
Precipitation 0.00 in - - ()
Sea Level Pressure  
Sea Level Pressure 29.53 in    
Wind  
Wind Speed 9 mph ()    
Max Wind Speed 17 mph    
Max Gust Speed 29 mph    
Visibility 5.6 miles    
Events Rain    
Averages and records for this station are not official NWS values.
T = Trace of Precipitation, MM = Missing Value Source: Averaged Metar Reports

Daily Weather History Graph

Daily Weather History Graph

Search for Another Location

Airport:

Trip Planner

Search our weather history database for the weather conditions in past years. The results will help you decide how hot, cold, wet, or windy it might be!

Date:

Astronomy

Nov. 06, 2013 Rise Set
Actual Time 7:42 AM CET 5:04 PM CET
Civil Twilight 7:07 AM CET 5:40 PM CET
Nautical Twilight 6:27 AM CET 6:19 PM CET
Astronomical Twilight 5:48 AM CET 6:58 PM CET
Moon 10:53 AM CET (11/6) 7:41 PM CET (11/6)
Length of Visible Light 10h 33m
Length of Day
9h 21m
Waxing Crescent, 11% of the Moon is Illuminated
Nov 6
Waxing Crescent
Nov 10
First Quarter
Nov 17
Full
Nov 25
Last Quarter
Dec 3
New

Hourly Weather History & Observations

Time (CET) Temp. Windchill Dew Point Humidity Pressure Visibility Wind Dir Wind Speed Gust Speed Precip Events Conditions
12:17 AM 48.2 °F - 41.0 °F 76% 29.39 in 4.3 mi West 13.8 mph 25.3 mph N/A Rain Light Rain
12:21 AM 48.2 °F - 41.0 °F 76% 29.39 in 6.2 mi West 17.3 mph 28.8 mph N/A Rain Rain
12:25 AM 46.4 °F 39.5 °F 41.0 °F 81% 29.39 in 6.2 mi West 17.3 mph 28.8 mph N/A Rain Light Rain Showers
12:36 AM 46.4 °F 39.5 °F 42.8 °F 87% 29.39 in 4.3 mi West 17.3 mph 28.8 mph N/A Rain Light Rain Showers
12:40 AM 46.4 °F 40.1 °F 42.8 °F 87% 29.39 in 6.2 mi West 15.0 mph - N/A Rain Light Rain Showers
12:49 AM 46.4 °F 41.9 °F 42.8 °F 87% 29.42 in 6.2 mi West 9.2 mph - N/A   Overcast
12:55 AM 46.4 °F 42.4 °F 42.8 °F 87% 29.42 in 6.2 mi WSW 8.1 mph - N/A Rain Light Rain
12:59 AM 46.4 °F 42.4 °F 42.8 °F 87% 29.42 in 6.2 mi WSW 8.1 mph - N/A   Overcast
1:04 AM 46.4 °F 42.4 °F 44.6 °F 93% 29.42 in 6.2 mi WSW 8.1 mph - N/A   Overcast
1:08 AM 46.4 °F 42.4 °F 44.6 °F 93% 29.42 in 6.2 mi WSW 8.1 mph - N/A Rain Light Rain
1:21 AM 46.4 °F 42.9 °F 42.8 °F 87% 29.42 in 6.2 mi WSW 6.9 mph - N/A   Mostly Cloudy
1:25 AM 46.4 °F 42.4 °F 42.8 °F 87% 29.42 in 6.2 mi WSW 8.1 mph - N/A   Mostly Cloudy
1:55 AM 46.4 °F 41.9 °F 42.8 °F 87% 29.42 in 6.2 mi WSW 9.2 mph - N/A   Scattered Clouds
2:25 AM 46.4 °F 42.4 °F 42.8 °F 87% 29.44 in 6.2 mi WSW 8.1 mph - N/A   Partly Cloudy
2:55 AM 46.4 °F 42.9 °F 42.8 °F 87% 29.44 in 6.2 mi WSW 6.9 mph - N/A   Scattered Clouds
3:25 AM 46.4 °F 42.9 °F 41.0 °F 81% 29.44 in 6.2 mi WSW 6.9 mph - N/A   Mostly Cloudy
3:55 AM 46.4 °F 42.9 °F 41.0 °F 81% 29.47 in 6.2 mi WSW 6.9 mph - N/A   Scattered Clouds
4:25 AM 44.6 °F 41.4 °F 41.0 °F 87% 29.47 in 6.2 mi SW 5.8 mph - N/A   Overcast
4:55 AM 44.6 °F 41.4 °F 41.0 °F 87% 29.50 in 6.2 mi SW 5.8 mph - N/A   Overcast
5:25 AM 46.4 °F 43.5 °F 42.8 °F 87% 29.50 in 6.2 mi SW 5.8 mph - N/A   Mostly Cloudy
5:55 AM 46.4 °F 42.9 °F 42.8 °F 87% 29.50 in 6.2 mi SW 6.9 mph - N/A   Light Drizzle
6:25 AM 46.4 °F 41.5 °F 42.8 °F 87% 29.50 in 6.2 mi WSW 10.4 mph - N/A   Mostly Cloudy
6:55 AM 46.4 °F 42.9 °F 42.8 °F 87% 29.50 in 6.2 mi SW 6.9 mph - N/A   Overcast
7:25 AM 46.4 °F 42.4 °F 42.8 °F 87% 29.50 in 6.2 mi SSW 8.1 mph - N/A   Overcast
7:55 AM 46.4 °F 43.5 °F 44.6 °F 93% 29.53 in 6.2 mi SW 5.8 mph - N/A   Overcast
8:25 AM 46.4 °F 42.9 °F 44.6 °F 93% 29.53 in 6.2 mi SW 6.9 mph - N/A   Overcast
8:55 AM 46.4 °F 42.4 °F 44.6 °F 93% 29.53 in 6.2 mi SW 8.1 mph - N/A   Overcast
9:01 AM 48.2 °F - 44.6 °F 87% 29.53 in 6.2 mi SSW 8.1 mph - N/A   Overcast
9:25 AM 48.2 °F - 44.6 °F 87% 29.53 in 6.2 mi SSW 6.9 mph - N/A   Overcast
9:42 AM 48.2 °F - 44.6 °F 87% 29.53 in 6.2 mi SSW 8.1 mph - N/A   Mostly Cloudy
9:55 AM 48.2 °F - 44.6 °F 87% 29.56 in 6.2 mi SSW 6.9 mph - N/A Rain Light Rain
10:25 AM 50.0 °F - 46.4 °F 87% 29.56 in 6.2 mi SW 5.8 mph - N/A   Mostly Cloudy
10:55 AM 50.0 °F - 46.4 °F 87% 29.56 in 6.2 mi SW 8.1 mph - N/A   Overcast
11:25 AM 51.8 °F - 46.4 °F 82% 29.56 in 6.2 mi SW 6.9 mph - N/A   Overcast
11:55 AM 51.8 °F - 46.4 °F 82% 29.56 in 6.2 mi SW 9.2 mph - N/A   Overcast
12:01 PM 51.8 °F - 46.4 °F 82% 29.56 in 6.2 mi SW 8.1 mph - N/A   Overcast
12:06 PM 51.8 °F - 46.4 °F 82% 29.56 in 6.2 mi SW 9.2 mph - N/A   Mostly Cloudy
12:25 PM 51.8 °F - 46.4 °F 82% 29.56 in 6.2 mi SW 10.4 mph - N/A   Mostly Cloudy
12:30 PM 51.8 °F - 46.4 °F 82% 29.56 in 6.2 mi SW 11.5 mph - N/A   Overcast
12:37 PM 51.8 °F - 46.4 °F 82% 29.56 in 6.2 mi SW 10.4 mph - N/A   Mostly Cloudy
12:55 PM 51.8 °F - 48.2 °F 88% 29.56 in 6.2 mi SW 9.2 mph - N/A Rain Light Rain
12:59 PM 51.8 °F - 48.2 °F 88% 29.56 in 6.2 mi SW 9.2 mph - N/A Rain Light Rain
1:00 PM 51.8 °F - 48.2 °F 88% 29.56 in 6.2 mi SW 9.2 mph - N/A   Drizzle
1:17 PM 51.8 °F - 48.2 °F 88% 29.56 in 6.2 mi SW 9.2 mph - N/A   Drizzle
1:18 PM 51.8 °F - 48.2 °F 88% 29.56 in 6.2 mi SW 9.2 mph - N/A   Drizzle
1:25 PM 51.8 °F - 48.2 °F 88% 29.56 in 5.6 mi SW 9.2 mph - N/A   Light Drizzle
1:27 PM 51.8 °F - 48.2 °F 88% 29.56 in 4.3 mi SW 9.2 mph - N/A   Light Drizzle
1:30 PM 51.8 °F - 48.2 °F 88% 29.56 in 4.3 mi SW 9.2 mph - N/A   Light Drizzle
1:49 PM 51.8 °F - 50.0 °F 94% 29.56 in 4.3 mi SW 9.2 mph - N/A   Drizzle
1:55 PM 51.8 °F - 50.0 °F 94% 29.56 in 4.3 mi SW 10.4 mph - N/A   Light Drizzle
1:56 PM 51.8 °F - 50.0 °F 94% 29.56 in 4.3 mi SW 9.2 mph - N/A   Light Drizzle
2:15 PM 51.8 °F - 50.0 °F 94% 29.56 in 4.3 mi SW 8.1 mph - N/A   Light Drizzle
2:25 PM 51.8 °F - 50.0 °F 94% 29.56 in 3.7 mi SW 9.2 mph - N/A   Light Drizzle
2:42 PM 51.8 °F - 50.0 °F 94% 29.56 in 4.3 mi SW 8.1 mph - N/A   Mostly Cloudy
2:48 PM 51.8 °F - 50.0 °F 94% 29.56 in 5.0 mi SW 8.1 mph - N/A   Mostly Cloudy
2:55 PM 51.8 °F - 50.0 °F 94% 29.56 in 4.3 mi SW 6.9 mph - N/A   Drizzle
3:00 PM 51.8 °F - 50.0 °F 94% 29.56 in 4.3 mi SW 6.9 mph - N/A   Light Drizzle
3:17 PM 51.8 °F - 50.0 °F 94% 29.56 in - SW 5.8 mph - N/A   Drizzle
3:25 PM 51.8 °F - 50.0 °F 94% 29.56 in - SW 4.6 mph - N/A   Drizzle
3:39 PM 51.8 °F - 50.0 °F 94% 29.56 in - SW 4.6 mph - N/A   Drizzle
3:55 PM 51.8 °F - 50.0 °F 94% 29.56 in 2.2 mi SSW 3.5 mph - N/A   Heavy Drizzle
4:25 PM 51.8 °F - 50.0 °F 94% 29.56 in 1.9 mi South 6.9 mph - N/A   Heavy Drizzle
4:27 PM 51.8 °F - 50.0 °F 94% 29.56 in 1.9 mi South 6.9 mph - N/A   Heavy Drizzle
4:55 PM 51.8 °F - 50.0 °F 94% 29.56 in - South 5.8 mph - N/A   Heavy Drizzle
5:25 PM 51.8 °F - 50.0 °F 94% 29.56 in - South 6.9 mph - N/A   Heavy Drizzle
5:40 PM 51.8 °F - 51.8 °F 100% 29.56 in - SSW 6.9 mph - N/A   Heavy Drizzle
5:42 PM 51.8 °F - 51.8 °F 100% 29.56 in - SSW 6.9 mph - N/A   Heavy Drizzle
5:44 PM 51.8 °F - 51.8 °F 100% 29.56 in - SSW 6.9 mph - N/A   Heavy Drizzle
5:48 PM 51.8 °F - 51.8 °F 100% 29.56 in - SSW 6.9 mph - N/A   Heavy Drizzle
5:55 PM 51.8 °F - 51.8 °F 100% 29.56 in - SSW 6.9 mph - N/A   Heavy Drizzle
6:25 PM 51.8 °F - 51.8 °F 100% 29.56 in - SSW 9.2 mph - N/A   Heavy Drizzle
6:32 PM 51.8 °F - 51.8 °F 100% 29.56 in - South 9.2 mph - N/A   Heavy Drizzle
6:34 PM 51.8 °F - 51.8 °F 100% 29.56 in 2.2 mi South 10.4 mph - N/A   Heavy Drizzle
6:45 PM 51.8 °F - 51.8 °F 100% 29.56 in - South 10.4 mph - N/A   Heavy Drizzle
6:55 PM 51.8 °F - 51.8 °F 100% 29.56 in - South 9.2 mph - N/A   Drizzle
7:25 PM 51.8 °F - 51.8 °F 100% 29.56 in - SSW 9.2 mph - N/A   Drizzle
7:26 PM 53.6 °F - 51.8 °F 94% 29.56 in 2.8 mi SSW 10.4 mph - N/A   Mostly Cloudy
7:34 PM 53.6 °F - 51.8 °F 94% 29.56 in 3.1 mi SSW 10.4 mph - N/A   Overcast
7:45 PM 53.6 °F - 53.6 °F 100% 29.56 in 5.0 mi SSW 10.4 mph - N/A   Light Drizzle
7:53 PM 55.4 °F - 53.6 °F 94% 29.56 in 6.2 mi SW 9.2 mph - N/A   Overcast
7:55 PM 55.4 °F - 53.6 °F 94% 29.56 in 6.2 mi SW 9.2 mph - N/A   Overcast
8:04 PM 55.4 °F - 53.6 °F 94% 29.56 in 6.2 mi SW 10.4 mph - N/A   Overcast
8:25 PM 57.2 °F - 53.6 °F 88% 29.56 in 6.2 mi SW 13.8 mph - N/A   Mostly Cloudy
8:31 PM 57.2 °F - 53.6 °F 88% 29.56 in 6.2 mi WSW 12.7 mph 24.2 mph N/A   Overcast
8:36 PM 57.2 °F - 53.6 °F 88% 29.56 in 6.2 mi WSW 12.7 mph - N/A   Mostly Cloudy
8:55 PM 57.2 °F - 53.6 °F 88% 29.53 in 6.2 mi SW 13.8 mph 25.3 mph N/A   Mostly Cloudy
9:15 PM 57.2 °F - 53.6 °F 88% 29.56 in 6.2 mi SW 13.8 mph - N/A   Overcast
9:25 PM 57.2 °F - 53.6 °F 88% 29.56 in 3.7 mi SW 13.8 mph 26.5 mph N/A   Overcast
9:28 PM 57.2 °F - 53.6 °F 88% 29.56 in - SW 13.8 mph 26.5 mph N/A   Overcast
9:40 PM 57.2 °F - 55.4 °F 94% 29.56 in 6.2 mi SW 11.5 mph - N/A   Drizzle
9:47 PM 57.2 °F - 53.6 °F 88% 29.53 in 6.2 mi SW 12.7 mph - N/A   Overcast
9:55 PM 57.2 °F - 53.6 °F 88% 29.53 in 6.2 mi SW 12.7 mph - N/A   Overcast
10:25 PM 57.2 °F - 53.6 °F 88% 29.56 in 6.2 mi SW 12.7 mph - N/A   Overcast
10:40 PM 57.2 °F - 53.6 °F 88% 29.56 in 6.2 mi SW 15.0 mph - N/A   Overcast
10:46 PM 57.2 °F - 53.6 °F 88% 29.53 in 6.2 mi SW 15.0 mph - N/A   Overcast
10:47 PM 57.2 °F - 53.6 °F 88% 29.53 in 6.2 mi SW 15.0 mph - N/A   Overcast
10:55 PM 57.2 °F - 53.6 °F 88% 29.53 in 6.2 mi SW 15.0 mph - N/A   Overcast
11:11 PM 57.2 °F - 53.6 °F 88% 29.53 in 6.2 mi SW 12.7 mph - N/A   Overcast
11:25 PM 57.2 °F - 53.6 °F 88% 29.56 in 6.2 mi SW 13.8 mph 25.3 mph N/A   Overcast
11:55 PM 57.2 °F - 53.6 °F 88% 29.56 in 6.2 mi SW 16.1 mph - N/A   Mostly Cloudy